Location: Maynard F. Jordan Observatory
(44.9000°N, 68.6700°W)
Time: 11:53:06
(UTC-05:00)

Daily predictions for brighter satellites

Satellite Brightness Start Highest point End
(mag) Time Altitude Azimuth Time Altitude Azimuth Time Altitude Azimuth
Nadezhda 1 Rocket 4.2 17:35:46 10° N 17:41:51 79° W 17:47:55 10° S
COSMOS 2428 3.3 17:38:29 10° NNW 17:43:42 36° NE 17:48:54 10° ESE
Cosmos 1300 Rocket 4.1 17:42:11 10° SSE 17:46:14 36° E 17:50:19 10° NNE
Meteor 2-4 Rocket 4.2 17:43:48 10° N 17:48:53 35° ENE 17:53:49 10° SE
Spot 2 Rocket 4.5 17:45:03 10° ESE 17:49:11 26° ENE 17:53:21 10° N
Meteor 1-13 Rocket 4.3 17:44:39 10° N 17:50:09 58° ENE 17:55:42 10° SSE
Thor Agena Rocket 4.0 17:45:51 10° N 17:50:52 65° WNW 17:55:51 10° SSW
USA 215 4.0 17:45:45 10° NE 17:51:59 49° NNW 17:58:13 10° W
Cosmos 1238 Rocket 2.5 17:49:34 10° N 17:52:24 40° ENE 17:55:14 10° SSE
H-2A R/B 4.1 17:51:12 10° ESE 17:53:49 19° ENE 17:56:29 10° NNE
COSMO-SKYMED 1 2.7 17:49:46 10° NNE 17:54:09 85° WNW 17:58:29 10° SSW
Cosmos 1812 4.1 17:50:30 10° NNW 17:54:13 45° W 17:57:54 10° SSW
Cosmos 2360 Rocket 2.2 17:50:26 10° NNW 17:56:08 86° ENE 18:01:49 10° SSE
Cosmos 2219 Rocket 3.2 17:51:35 10° N 17:56:19 27° NE 18:01:01 10° ESE
Cosmos 2208 Rocket 4.4 17:52:27 10° N 17:57:42 45° ENE 18:02:51 10° SE
Resurs 01 Rocket 2.5 17:56:34 10° SE 18:00:22 29° ENE 18:04:10 10° N
Cosmos 1850 Rocket 4.5 17:57:21 10° S 18:02:14 39° ESE 18:07:11 10° NE
Cosmos 2219 3.8 17:58:43 10° SSE 18:03:50 35° ESE 18:08:59 10° NE
BREEZE-M DEB (TANK) 4.0 18:03:31 10° SSW 18:06:44 20° SSE 18:08:19 13° ESE
BREEZE-M DEB (TANK) 3.1 18:04:15 10° WNW 18:06:58 65° NNE 18:13:23 11° ESE
Cosmos 2181 Rocket 4.0 18:01:23 10° N 18:07:40 74° E 18:13:59 10° SSE
Cosmos 1954 Rocket 4.0 18:02:41 10° SSW 18:07:53 88° ESE 18:13:10 10° NNE
Cosmos 2227 Rocket 3.9 18:06:27 10° ESE 18:07:24 11° E 18:07:24 11° E
Cosmos 1536 3.3 18:04:50 10° SSE 18:08:30 36° E 18:12:10 10° NNE
Okean 1 4.5 18:06:08 10° NNW 18:10:04 49° W 18:13:59 10° SSW
Resurs 1-3 4.3 18:09:29 10° SE 18:13:24 33° ENE 18:17:19 10° N
HJ-1C 3.7 18:12:14 10° SSE 18:15:27 44° ENE 18:18:41 10° N
SL-16 R/B 4.0 18:13:53 10° N 18:16:38 13° NE 18:18:43 11° ENE
Cosmos 1709 Rocket 4.1 18:13:32 10° S 18:19:46 84° W 18:25:57 10° N
Cosmos 2074 Rocket 4.3 18:14:56 10° SSE 18:20:49 45° E 18:26:45 10° NNE
Okean 1 Rocket 3.0 18:20:25 10° S 18:24:52 72° E 18:29:21 10° NNE
Cosmos 2184 Rocket 4.2 18:20:01 10° SSE 18:26:01 47° E 18:31:58 10° NNE
Cosmos 1892 Rocket 4.4 18:23:21 10° NNE 18:27:06 27° ENE 18:29:32 17° ESE
Cosmos 1602 4.1 18:24:09 10° SSW 18:28:01 70° W 18:31:57 10° N
Meteor 1-11 Rocket 3.8 18:23:51 10° S 18:29:40 87° E 18:35:39 10° NNE
Cosmos 1340 4.2 18:27:51 10° NNW 18:31:25 39° W 18:34:56 10° SSW
Cosmos 1025 Rocket 3.0 18:29:44 10° N 18:34:06 60° E 18:38:26 10° SSE
ALOS 2.2 18:31:01 10° SSE 18:35:42 85° ENE 18:40:23 10° NNW
USA 186 3.6 18:38:04 16° NNE 18:38:04 16° NNE 18:38:57 10° NNE
SAR-Lupe-4 4.0 18:35:40 22° SE 18:37:27 38° ENE 18:40:49 10° N
Cosmos 2333 Rocket 2.6 18:32:42 10° NNW 18:38:12 43° ENE 18:41:50 20° ESE
SL-08 ROCKET BODY 4.4 18:32:50 10° S 18:38:57 69° E 18:45:07 10° NNE
Cosmos 1980 4.3 18:36:20 10° NNW 18:41:35 37° NE 18:44:14 24° ESE
Nadezhda 3 Rocket 4.4 18:36:32 10° N 18:42:12 37° ENE 18:46:45 15° SE
FENGYUN 3A 3.8 18:44:44 10° S 18:50:09 77° WSW 18:55:37 10° NNW
Abrixas rocket 2.4 18:49:20 10° SW 18:52:37 52° SSE 18:52:57 49° SE
Cosmos 1544 Rocket 4.0 18:49:21 10° SSE 18:53:19 36° E 18:57:17 10° NNE
NOSS 0 Rocket 4.0 18:48:10 10° NNW 18:54:15 59° ENE 18:58:02 24° SE
Cosmos 2285 Rocket 4.0 18:47:51 10° NNW 18:54:20 81° ENE 19:00:45 10° SSE
Cosmos 1741 Rocket 4.1 18:49:16 10° SSW 18:54:29 79° WNW 18:59:44 10° NNE
Cosmos 2154 Rocket 4.3 18:49:25 10° SSE 18:55:20 43° E 19:01:15 10° NNE
GEOS 3 Rocket 3.7 18:51:18 17° NE 18:55:20 55° ESE 19:00:31 10° SSW
Cosmos 1763 Rocket 4.2 18:51:03 10° N 18:55:39 32° ENE 18:56:19 31° ENE
Okean 1-7 Rocket 4.2 18:51:59 10° NNW 18:56:27 60° W 19:00:51 10° S
GPS 2-04 Rocket1 4.4 18:57:54 10° SW 19:01:19 23° S 19:01:59 22° SSE
Meteor 1-5 Rocket 4.3 18:58:46 10° S 19:04:44 88° E 19:10:39 10° N
Cosmos 1437 4.4 19:02:54 10° N 19:04:26 24° NNE 19:04:26 24° NNE
ATLAS CENTAUR R/B 3.6 19:13:20 10° SSW 19:14:33 16° SSW 19:14:33 16° SSW
Meteor 1-12 Rocket 4.4 19:14:59 10° S 19:20:46 54° E 19:26:31 10° NNE
Cosmos 405 Rocket 3.0 19:18:15 10° NNW 19:22:21 73° W 19:23:33 43° S
Cosmos 468 Rocket 4.0 19:17:39 10° NNW 19:22:54 85° WSW 19:25:21 33° SSE
USA 229 DEB 4.2 19:17:14 10° NW 19:24:16 63° WSW 19:29:53 17° SSE
USA 229 4.2 19:17:20 10° NW 19:24:22 63° WSW 19:29:56 18° SSE
Helios 1A 3.2 19:23:44 33° S 19:25:29 69° WSW 19:29:39 10° NNW
Okean 2 4.1 19:21:42 10° NNW 19:25:46 53° W 19:29:22 13° S
CZ-2D R/B 4.1 19:24:00 18° SSW 19:26:31 48° W 19:30:15 10° NNW
Cosmos 2237 Rocket 2.1 19:21:11 10° NNW 19:26:55 74° ENE 19:28:15 53° SE
Cosmos 962 Rocket 4.4 19:21:21 10° SSE 19:27:22 56° E 19:33:21 10° NNE
H-2A R/B 4.3 19:24:29 10° SSW 19:27:53 34° W 19:31:20 10° NNW
COSMOS 2428 4.0 19:22:45 10° NW 19:28:00 39° WSW 19:33:13 10° S
Helios 1B rocket 2.4 19:24:10 10° NNE 19:28:20 86° WNW 19:32:29 10° SSW
Gbstr 26 Del rocket 3.4 19:25:51 10° W 19:29:29 47° NNW 19:29:29 47° NNW
Cosmos 1066 Rocket 4.1 19:24:28 10° N 19:30:05 59° ENE 19:30:18 59° E
Cosmos 2297 Rocket 4.1 19:25:33 10° S 19:26:20 14° S 19:26:20 14° S
Meteor 2-8 Rocket 4.3 19:30:27 10° N 19:36:29 62° ENE 19:36:57 60° ESE
Resurs 01 Rocket 3.5 19:32:56 10° SSW 19:36:47 29° W 19:40:39 10° NW
NOSS 3-1 (A) 4.0 19:29:35 10° NW 19:37:02 67° NE 19:39:19 48° ESE
Cosmos 2219 Rocket 2.8 19:35:08 10° NW 19:40:35 54° WSW 19:43:37 26° S
ATLAS 2AS CENTAUR R/B 3.9 19:35:13 10° NNW 19:42:24 33° NNE 19:43:50 31° NE
Cosmos 1814 Rocket 4.0 19:37:36 10° NNW 19:42:46 75° WSW 19:43:32 63° SSW
ERS-1 Rocket 3.7 19:45:15 40° NNE 19:45:15 40° NNE 19:48:39 10° N
Envisat 2.8 19:44:07 86° SSE 19:44:15 89° ENE 19:49:22 10° NNW
USA 32 3.9 19:40:26 10° N 19:45:18 75° NNE 19:45:18 75° NNE
Cosmos 2219 4.5 19:42:33 10° SW 19:47:55 40° NW 19:53:19 10° NNE
Cosmos 2227 Rocket 2.6 19:45:21 10° SSW 19:49:26 49° S 19:49:26 49° S
NOSS 3-1 (C) 4.0 19:47:59 10° NW 19:55:32 84° SW 19:57:53 52° SSE
SL-16 R/B 2.7 19:56:19 10° NNW 20:00:38 48° N 20:00:38 48° N
H-2A R/B 4.3 20:21:53 16° N 20:21:53 16° N 20:23:01 10° N
Cosmos 2333 Rocket 3.7 20:17:16 10° NW 20:22:18 32° WSW 20:23:54 27° SW
Cosmos 2237 Rocket 4.5 21:06:41 10° WNW 21:10:07 17° W 21:10:07 17° W
ATLAS 2AS CENTAUR R/B 4.0 21:26:19 10° NW 21:31:17 42° NW 21:31:17 42° NW
